Observations
| Time | Sensor | AQI | SAQ | Temp °C | Hum % | Pres Pa | CO μg/m³ | H₂S μg/m³ | NO μg/m³ | NO₂ μg/m³ | O₃ μg/m³ | SO₂ μg/m³ | CO₂e PPM | VOC PPM | PM1 μg/m³ | PM2.5 μg/m³ | PM4 μg/m³ | PM10 μg/m³ | TPS µm |
|---|---|---|---|---|---|---|---|---|---|---|---|---|---|---|---|---|---|---|---|
| Tuesday 11 August 2026 | |||||||||||||||||||
| 15:02 | Trim Patrick St | 2 | 35.9 | 21 | 69,634 | 0 | 0 | 0.28 | 13.31 | 98.33 | 22.43 | 2 | 8.22 | 9.05 | |||||
| 15:01 | Trim Market St | 2 | 43.1 | 15 | 67,424 | 0 | 0 | 0 | 15.47 | 119.19 | 8.42 | 0.71 | 4.53 | 4.98 | |||||
| 15:01 | Trim Patrick St | 2 | 35.9 | 22 | 69,646 | 0 | 0 | 0.27 | 15.68 | 107.92 | 21.2 | 2 | 9.03 | 9.93 | |||||
| 15:00 | Trim Market St | 2 | 43.2 | 15 | 67,442 | 0 | 0 | 0 | 14.34 | 103.13 | 9.94 | 0.71 | 3.95 | 4.35 | |||||
| 15:00 | Trim Patrick St | 2 | 35.9 | 22 | 69,656 | 0 | 0 | 0.26 | 14.14 | 100.05 | 20.76 | 2 | 8.21 | 9.03 | |||||
| 14:59 | Trim Market St | 2 | 43.3 | 15 | 67,432 | 0 | 0 | 0 | 15.26 | 94.77 | 8.9 | 0 | 3.94 | 4.33 | |||||
| 14:59 | Trim Patrick St | 2 | 35.9 | 21 | 69,673 | 0 | 0 | 0.27 | 14.01 | 96.09 | 20.99 | 2 | 9.04 | 9.95 | |||||
| 14:58 | Trim Market St | 2 | 43.2 | 16 | 67,446 | 0 | 0 | 0 | 15.19 | 101.1 | 8.92 | 0 | 3.93 | 4.32 | |||||
| 14:58 | Trim Patrick St | 2 | 35.9 | 21 | 69,665 | 0 | 0 | 0.27 | 12.82 | 97.27 | 22.44 | 2 | 8.22 | 9.04 | |||||
| 14:57 | Trim Market St | 2 | 43.2 | 16 | 67,434 | 0 | 0 | 0 | 15.02 | 91.46 | 8.3 | 0.71 | 4.49 | 4.94 | |||||
| 14:57 | Trim Patrick St | 2 | 35.9 | 23 | 69,660 | 0 | 0 | 0.24 | 14.93 | 177.26 | 23.13 | 2 | 8.13 | 8.94 | |||||
| 14:56 | Trim Market St | 2 | 43.2 | 16 | 67,444 | 0 | 0 | 0 | 15.03 | 94.35 | 8.39 | 0 | 3.92 | 4.32 | |||||
| 14:56 | Trim Patrick St | 2 | 35.9 | 23 | 69,650 | 0 | 0 | 0.24 | 11.52 | 78.39 | 21.43 | 2 | 8.92 | 9.82 | |||||
| 14:55 | Trim Market St | 2 | 43.2 | 16 | 67,428 | 0 | 0 | 0 | 14.97 | 129.8 | 7.7 | 0.71 | 4.47 | 4.92 | |||||
| 14:55 | Trim Patrick St | 2 | 35.9 | 24 | 69,640 | 0 | 0 | 0.26 | 10.39 | 88.52 | 20.93 | 2 | 8.9 | 9.79 | |||||
| 14:54 | Trim Market St | 2 | 43.3 | 16 | 67,442 | 0 | 0 | 0 | 15.27 | 110.77 | 9.09 | 0 | 3.93 | 4.32 | |||||
| 14:54 | Trim Patrick St | 2 | 35.9 | 23 | 69,652 | 0 | 0 | 0.26 | 13.88 | 124.04 | 21.01 | 2 | 8.09 | 8.9 | |||||
| 14:53 | Trim Market St | 2 | 43.3 | 15 | 67,457 | 0 | 0 | 0 | 16.35 | 98.08 | 7.05 | 1.43 | 4.5 | 4.95 | |||||
| 14:53 | Trim Patrick St | 2 | 35.9 | 24 | 69,638 | 0 | 0 | 0.3 | 10.44 | 55.25 | 19.73 | 2 | 8.06 | 8.87 | |||||
| 14:52 | Trim Market St | 2 | 43.4 | 15 | 67,471 | 0 | 0 | 0 | 15.24 | 102.43 | 8.97 | 0 | 3.38 | 3.72 | |||||